sat.trackr.live / text

‹ back to catalog

STARLINK-37609

NORAD 69036 · 2026-101M

PAYLOAD ACTIVE UNKNOWN

§ Identity

Operator
Country
US
Launch date
2026-05-06
Launch site
AFWTR
Launch vehicle
Mass (kg)
RCS (m²)

Purposes: comms

External: N2YO · Heavens-Above · Gunter

§ Orbital elements

Epoch: 2026-09-20T01:32:13.481088Z

Period
93.91 min
Inclination
97.2828°
Eccentricity
0.0002802
Mean motion
15.33447808 rev/d
Perigee alt
463.6 km
Apogee alt
467.5 km
Semi-major
6,843.7 km
B*
3.6783e-4
RAAN
116.5803°
Arg perigee
82.8635°
Mean anomaly
277.2926°
Rev number
2,111

§ Raw data

STARLINK-376091 69036U 26101M   26263.06404492  .00011820  00000+0  36783-3 0  99932 69036  97.2828 116.5803 0002802  82.8635 277.2926 15.33447808 21113

JSON: /api/v1/satellites/69036 · /tle

For live sub-satellite position, see the globe view (requires WebGL).

§ Visibility from observer

Set your observer location to see the next 7 days of passes ≥ 10°. The values pass through the URL so the page stays shareable.

No JS? Fill the form by hand. The geolocation button needs JavaScript.